Regional Weather Roundup
Issued by NWS Grand Forks, ND

Home | Current Version | Previous Version | Text Only | Print | Product List | Glossary On
Versions: 1 2 3 4 5 6 7 8 9 10 11 12 13 14 15 16 17 18 19 20 21 22 23 24 25 26 27 28 29 30 31 32 33 34 35 36 37 38 39 40 41 42 43 44 45 46 47 48 49 50
000
ASUS43 KFGF 281510
RWRFGF
PRAIRIE TO PINES  WEATHER ROUNDUP
NATIONAL WEATHER SERVICE EASTERN NORTH DAKOTA/GRAND FORKS ND
1000 AM CDT THU JUL 28 2016

 **SATELLITE DATA USED TO AUGMENT SKY COVER AT AUTOMATED STATIONS**
 *****  WEATHER ACROSS EASTERN NORTH DAKOTA  *****

CITY           SKY/WX    TMP DP  RH WIND       PRES   REMARKS
GRAND FORKS    MOSUNNY   69  58  67 NE9       30.12S
GRAND FRKS AFB NOT AVBL
GRAND FRKS NWS   N/A     66 N/A N/A NE5         N/A
DEVILS LAKE    PTSUNNY   64  56  75 NE7       30.17S
FARGO          PTSUNNY   72  64  76 N3        30.09R
WAHPETON ARPT  MOSUNNY   72  61  68 NE5       30.09S
$$

 ***** WEATHER ACROSS CENTRAL AND WESTERN NORTH DAKOTA  *****

CITY           SKY/WX    TMP DP  RH WIND       PRES   REMARKS
BISMARCK       CLOUDY    67  58  72 E5        30.16S
MINOT          CLOUDY    69  54  58 CALM      30.17S
JAMESTOWN      MOSUNNY   66  60  81 NE7       30.13S
MINOT AFB      NOT AVBL
GARRISON         N/A     62  58  86 NE7       30.17R
WILLISTON      MOSUNNY   69  59  70 NE7       30.17F
DICKINSON      CLOUDY    59  58  96 E13       30.14S
HETTINGER      CLOUDY    65  58  78 E10       30.15F
$$

 *****  OTHER AIRPORT OBSERVATIONS IN OUR AREA  *****

CITY           SKY/WX    TMP DP  RH WIND       PRES   REMARKS
WALHALLA       NOT AVBL
GRAFTON AIRPOR FAIR      66  55  68 N10       30.16S
VALLEY CITY AR CLOUDY    64  64 100 NE6       30.14S
CANDO          NOT AVBL
CAVALIER APRT  FAIR      64  55  72 N5        30.16F
GWINNER        FAIR      64  63  94 N5        30.12R
ROLLA          FAIR      63  54  72 NE7       30.20S
 ***** THE ABOVE OBSERVATIONS ARE NON NWS ARE NOT QUALITY
       CONTROLLED AND MAY MIS-REPORT RAIN FOR SNOW...
$$

  *****  WEATHER ACROSS NORTHERN MINNESOTA  *****

CITY           SKY/WX    TMP DP  RH WIND       PRES   REMARKS
FLAG ISLAND    CLOUDY    64  54  68 NE9       30.13S
WARROAD        MOSUNNY   66  59  77 NE8       30.14F
ROSEAU         SUNNY     66  57  72 N6        30.14S
HALLOCK        SUNNY     66  55  68 NE9       30.14F
THF RVR FALLS  SUNNY     67  58  72 N7        30.13S
BAUDETTE       SUNNY     67  56  67 VRB3      30.13S
WASKISH        SUNNY     68  57  68 CALM      30.12S
CROOKSTON      SUNNY     70  61  73 E3        30.12R
STEPHEN NDAWN    N/A     66  57  72 N8          N/A
GREENBUSH NDAW   N/A     66  55  68 N7          N/A
$$
  *****  WEATHER ACROSS CENTRAL AND WEST MINNESOTA  *****

CITY           SKY/WX    TMP DP  RH WIND       PRES   REMARKS
FOSSTON        SUNNY     68  61  77 NE3       30.11F
BEMIDJI        MOSUNNY   66  59  77 CALM      30.11F
PARK RAPIDS    PTSUNNY   68  62  81 CALM      30.11S
ELBOW LAKE     FAIR      69  62  78 E5        30.09S
WADENA         NOT AVBL
DETROIT LAKES  MOSUNNY   70  63  78 E3        30.11S
MOORHEAD       MOSUNNY   70  64  83 N3        30.10R
FERGUS FALLS   MOSUNNY   72  63  73 E5        30.09S
MORRIS MN      PTSUNNY   73  61  64 E8        30.07R
STAPLES        CLOUDY    68  57  68 NE5       30.09S
$$
  *****  WEATHER ELSEWHERE ACROSS MINNESOTA  *****

CITY           SKY/WX    TMP DP  RH WIND       PRES   REMARKS
DULUTH         SUNNY     69  53  56 E13       30.10R
INTRNTL FALLS  CLOUDY    68  57  68 NE5       30.12S
ELY            PTSUNNY   68  52  56 SE8       30.11S
CLOQUET        CLOUDY    68  52  56 E10       30.09S
WHEATON        MOSUNNY   72  64  78 E5        30.10S
BRAINERD       MOSUNNY   68  57  68 NE6       30.09F
HIBBING        PTSUNNY   65  56  72 CALM      30.11S
ALEXANDRIA     PTSUNNY   70  57  63 NE8       30.10S
SAINT CLOUD    MOSUNNY   69  59  70 NE10      30.06S
MINNEAPOLIS    CLOUDY    66  62  87 N9        30.03R
$$

  *****  WEATHER ACROSS SOUTH DAKOTA  *****

CITY           SKY/WX    TMP DP  RH WIND       PRES   REMARKS
SIOUX FALLS    CLOUDY    71  63  75 NE7       30.08S
BROOKINGS      PTSUNNY   66  62  87 NE6       30.09S
WATERTOWN      CLOUDY    69  60  73 NE9       30.10S
HURON          SUNNY     72  59  63 N9        30.10R
SISSETON         N/A     68  62  81 CALM      30.09S
ABERDEEN       CLOUDY    64  59  83 N7        30.12R
MITCHELL       MOSUNNY   72  61  68 CALM      30.10F
PIERRE         SUNNY     72  55  55 SE12      30.10F
MOBRIDGE       PTSUNNY   70  57  63 E8        30.11S
RAPID CITY     CLOUDY    66  60  81 NW10      30.15R
$$

  *****  SOME WEATHER IN NEARBY STATES *****

CITY           SKY/WX    TMP DP  RH WIND       PRES   REMARKS
GLASGOW MT     MOSUNNY   65  60  84 E10       30.17S
GREAT FALLS MT SUNNY     68  50  52 CALM      30.20S
CHEYENNE WY    FOG       58  57  97 E8        30.26F VSB 1/4
SCOTTSBLUFF NE CLOUDY    66  55  67 SE10      30.16F
OMAHA NE       MOSUNNY   77  68  73 N9        30.03S
DES MOINES IA  MOSUNNY   77  66  68 N14       29.98S
DAVENPORT IA   SUNNY     79  70  74 W5        29.91F
CHICAGO IL     CLOUDY    81  70  69 NE8       29.90F
EAU CLAIRE WI  CLOUDY    67  65  93 E15       29.98S
LA CROSSE WI   LGT RAIN  69  67  93 N6        29.93S FOG
$$

  *****  SOME NATIONAL WEATHER *****

CITY           SKY/WX    TMP DP  RH WIND       PRES   REMARKS
LA GUARDIA NY  PTSUNNY   91  64  40 VRB6      29.90F HX  92
RALEIGH NC     MOSUNNY   89  76  65 SW6       29.94F HX 100
ATLANTA GA     PTSUNNY   80  69  69 SW12      30.06S
NEW ORLEANS LA MOSUNNY   88  77  69 S12       30.05S HX 100
OKLAHOMA CITY  MOSUNNY   83  74  74 N6        30.00F
ALBUQUERQUE NM MOSUNNY   77  54  44 NW3       30.27R
SALT LAKE CITY MOSUNNY   82  40  22 CALM      30.10R
LOS ANGELES CA MOSUNNY   71  66  84 SW6       29.92R
BOISE ID       SUNNY     73  46  38 SE3       30.08R
SEATTLE WA     SUNNY     68  59  73 N6        30.15R
$$

*** WEATHER ACROSS MANITOBA...SASKATCHEWAN AND ONTARIO ***
                ***ONTARIO***

CITY           SKY/WX    TMP DP  RH WIND       PRES   REMARKS
GERALDTON      CLOUDY    61  52  72 NW7       30.12F
THUNDER BAY    MOSUNNY   70  54  56 E7        30.11S
SIOUX LOOKOUT  MOSUNNY   64  50  59 CALM      30.15F
TORONTO        CLOUDY    81  59  47 VRB2      29.92F
BIG TROUT LK   NOT AVBL
PICKLE LAKE    CLOUDY    61  50  67 N3        30.15F
DRYDEN         MOSUNNY   64  52  63 E7        30.15F
KENORA         PTSUNNY   63  52  67 E5        30.15F
$$
                *** MANITOBA***

CITY           SKY/WX    TMP DP  RH WIND       PRES   REMARKS
BRANDON        MOSUNNY   66  55  68 SW5       30.18S
DAUPHIN        SUNNY     70  55  60 W8        30.14F
ISLAND LAKE    PTSUNNY   66  54  63 SW2       30.11F
PILOT MOUND      N/A     64  52  63 E5          N/A
THE PAS        MOSUNNY   68  63  83 CALM      30.06F
THOMPSON       PTSUNNY   66  59  77 VRB2      30.04S
WINNIPEG       MOSUNNY   66  52  59 CALM      30.17S
LYNN LAKE      SUNNY     68  59  73 MISG      30.05F
CHURCHILL      MOSUNNY   54  50  87 N13       30.04S
GILLAM         LGT RAIN  61  57  88 SW7       30.06S
$$
                ***SASKATCHEWAN***

CITY           SKY/WX    TMP DP  RH WIND       PRES   REMARKS
ESTEVAN        MOSUNNY   68  57  68 SE7       30.19S
KINDERSLEY     MOSUNNY   68  59  73 S6        30.15S
LLOYDMINSTER   PTSUNNY   68  61  77 W5        30.12S
PRINCE ALBERT  MOSUNNY   73  57  56 W10       30.10S
REGINA         MOSUNNY   64  57  77 S7        30.18S
YORKTON        SUNNY     70  57  64 W8        30.16S
N. BATTLEFORD  SUNNY     70  55  60 SW7       30.14F
LA RONGE       MOSUNNY   70  63  78 VRB2      30.08S
SASKATOON      MOSUNNY   70  55  60 SW8       30.16F
SWIFT CURRENT  SUNNY     68  55  64 SW7       30.18F
$$
NOTE: THESE ARE AUTOMATED STATIONS WITH LIMITED QUALITY CONTROL
      "FAIR" INDICATES FEW OR NO CLOUDS BELOW 12,000 FEET WITH NO
      SIGNIFICANT WEATHER AND/OR OBSTRUCTIONS TO VISIBILITY.
      SKY/WX - SKY CONDITION AND SIGNIFICANT WEATHER.
      TMP - AIR TEMPERATURE.    DP   - DEWPOINT TEMPERATURE.
      RH  - RELATIVE HUMIDITY.  PRES - PRESSURE.
      HX  - HEAT INDEX.         WCI  - WIND CHILL INDEX.
$




USA.gov is the U.S. government's official web portal to all federal, state and local government web resources and services.